User: anonymous   Login
Location: Linz
(48.3300°N, 14.3000°E)
Time: 02:50:20
(UTC+01:00)
Language:

YUBILEINY - Orbit

View from above orbital plane
View from above orbital plane
View from above satellite
View from above satellite

Ground track
Ground track

The orbit data is extracted from the following two-line orbital elements,

1 32953U 08025A   19022.27836071  .00000021  00000-0  75656-4 0  9991
2 32953  82.5003 236.4174 0019675  90.0523 270.2811 12.43087250483992
Epoch (UTC): 22 January 2019 06:40:50
Eccentricity: 0.0019675
inclination: 82.5003°
perigee height: 1478 km
apogee height: 1509 km
right ascension of ascending node: 236.4174°
argument of perigee: 90.0523°
revolutions per day: 12.43087250
mean anomaly at epoch: 270.2811°
orbit number at epoch: 48399

The dashed part of the orbit path shows where the satellite is in the earth's shadow,  

DLR